Location: Carlisle
(34.5501°N, 84.5969°W)
Time: 15:57:21
(UTC+00:00)

VELOX 1 - Visible Passes

Search period start: 20 March 2023 00:00
Search period end: 30 March 2023 00:00
Orbit: 619 x 633 km, 98.4° (Epoch: 20 March)

Date Brightness Start Highest point End Pass type
(mag) Time Alt. Az. Time Alt. Az. Time Alt. Az.
20 Mar ? 00:12:40 10° N 00:16:57 64° WNW 00:21:12 10° SSW visible
20 Mar ? 11:04:09 10° SSE 11:08:30 69° ENE 11:12:51 10° N visible
21 Mar ? 00:31:57 10° N 00:35:57 37° WNW 00:39:55 10° SW visible
22 Mar ? 00:51:28 10° NNW 00:54:52 23° WNW 00:58:17 10° WSW visible
22 Mar ? 10:08:21 10° ESE 10:10:50 15° ENE 10:13:18 10° NNE visible
23 Mar ? 01:11:22 10° NNW 01:13:44 15° WNW 01:16:05 10° W visible
23 Mar ? 10:26:12 10° ESE 10:29:41 24° ENE 10:33:10 10° NNE visible
24 Mar ? 10:44:32 10° SE 10:48:35 38° ENE 10:52:38 10° N visible
25 Mar ? 00:11:42 10° N 00:16:00 68° WNW 00:20:16 10° SSW visible
25 Mar ? 11:03:12 10° SSE 11:07:31 64° ENE 11:11:51 10° N visible
26 Mar ? 00:30:53 10° N 00:34:55 40° WNW 00:38:56 10° SW visible
27 Mar ? 00:50:17 10° NNW 00:53:47 24° WNW 00:57:16 10° SW visible
27 Mar ? 10:07:26 10° E 10:09:44 14° ENE 10:12:00 10° NE visible
28 Mar ? 01:10:03 10° NNW 01:12:35 15° WNW 01:15:07 10° WSW visible
28 Mar ? 10:25:08 10° ESE 10:28:30 22° ENE 10:31:54 10° NNE visible
29 Mar ? 10:43:21 10° SE 10:47:19 36° ENE 10:51:19 10° N visible
